FALCON 9 R/B, 44480

Orbit data source: Space-Track

FALCON 9 R/B, 44480 is space debris in HEO originally from a launch on Tue, 06 Aug 2019 UTC launched from the Air Force Eastern Test Range (AFETR). Debris objects in space refer to the collection of defunct objects orbiting the Earth. Examples of debris include non-operational satellites, rocket bodies, and fragments generated from explosions, collisions, or faulty payload assembly.

Loading next visibility...
Identifier
44480, 2019-050B
Orbit
HEO
Country
Flag of USUS
Related business
Manufacturer
SpaceX
Mission
Spacecraft
Bus & Motor
F9ST2, Unknown motor
Mass
~4,000 kg wet, ~4,000 kg dry
Launch date (UTC)
2019-08-06 (6 years ago)
Launch vehicle
Unknown
Launch site
Air Force Eastern Test Range (AFETR)
Object type
Payload
Rocket body
Debris
Shape & HBR
Cyl, 7.8 m
Radar Cross Section
39.980 m², Large (>1 m²)

Expand to show TLE details & history
Last TLE update: 9 hours ago

TLE from 9 hours ago
0 FALCON 9 R/B
1 44480U 19050B   25303.81960486  .00053462  00000-0  17577-2 0  9999
2 44480  26.2029 314.3230 5913559 146.0354 272.1365  4.24829126 70213
Epoch: 2025-10-30T19:40Z
TLE epoch observation values (Epoch: 2025-10-30T19:40:13.859Z)
Latitude
-0.00001°
Longitude
-20.10607°
Altitude
14,160.531 km
Speed
3.75 km/s
True Right ascension
20h 57m 17s
True Declination
0° 00' 00"
Sunlit
Object was in daylight at epoch
Visualization orbit readout
Latitude
Unknown
Longitude
Unknown
Altitude
Unknown
Speed
Unknown
Apparent Right ascension
Unknown
Apparent Declination
Unknown
Sunlit
N/A
Visualization observer readout
Local Sidereal Time
00:02:05
Azimuth
Unknown
Elevation
Unknown
Doppler factor
Unknown
Orbital elements
Apogee altitude
19,254.469 km
Perigee altitude
204.057 km
Semi-major axis
16,107.4 km
Eccentricity
0.59136
Inclination
26.2029°
RAAN
314.323°
Arg. of periapsis
146.0354°
True anomaly
213.97814°
Mean anomaly
272.1365°
Eccentric anomaly
242.17253°
Mean motion
1.06171 °/min
Orbital period
339.08 mins
BSTAR
0.0017577
Loading maneuver chart data...
Computing Atmospheric mass density...
Loading historical data...
Loading historical data...
Loading historical data...
Loading historical data...
Loading historical data...
Loading historical data...
Loading historical data...
Other satellites on launch #50 in the year 2019 (2019-08-06 UTC)

Documentation

Showing up to 5 results
|